sat.trackr.live / text

‹ back to catalog

LEGION 2

NORAD 59626 · 2024-081B

PAYLOAD ACTIVE UNKNOWN

§ Identity

Operator
Country
US
Launch date
2024-05-02
Launch site
AFWTR
Launch vehicle
Mass (kg)
RCS (m²)

Purposes: earth_obs

External: N2YO · Heavens-Above · Gunter

§ Orbital elements

Epoch: 2026-05-25T03:55:50.948832Z

Period
94.96 min
Inclination
97.5017°
Eccentricity
0.0012796
Mean motion
15.16455538 rev/d
Perigee alt
507.7 km
Apogee alt
525.4 km
Semi-major
6,894.7 km
B*
2.0332e-4
RAAN
223.3675°
Arg perigee
61.2087°
Mean anomaly
299.0429°
Rev number
11,405

§ Raw data

LEGION 21 59626U 24081B   26145.16378413  .00003896  00000+0  20332-3 0  99922 59626  97.5017 223.3675 0012796  61.2087 299.0429 15.16455538114055

JSON: /api/v1/satellites/59626 · /tle

For live sub-satellite position, see the globe view (requires WebGL).

§ Visibility from observer

Set your observer location to see the next 7 days of passes ≥ 10°. The values pass through the URL so the page stays shareable.

No JS? Fill the form by hand. The geolocation button needs JavaScript.